Home > Weather > Jackson > Past weeks

Flag for U.S.A. Weather for the Past 2 Weeks in Jackson, Mississippi, U.S.A.

Now
45 °F

Clear.


Feels Like: 43 °F
Forecast: 37 / 51 °F
Wind: 5 mph from Northeast

Location: Hawkins Field

Current Time: Feb 13, 2016 at 3:00:33 AM

Latest Report: Feb 13, 2016 at 1:53 AM


Visibility: 10 mi

Pressure: 30.35 "Hg

Humidity: 56%

Dew point: 30 °F

Location of JacksonLocation

Historic Weather in Jackson — Graph

°F

Jackson Temperature Yesterday

Maximum temperature yesterday: 67 °F (at 12:53 PM)
Minimum temperature yesterday: 45 °F (at 2:53 AM)
Average temperature yesterday: 55 °F

High & Low Weather Summary for the Past Weeks

 TemperatureHumidityPressure
High75 °F (Feb 1, 2:53 PM)100% (Feb 3, 2:53 AM)30.51 "Hg (Feb 3, 2:53 AM)
Low26 °F (Feb 10, 5:53 AM)22% (Feb 9, 3:53 PM)29.65 "Hg (Feb 2, 3:53 PM)
Average51 °F59%30.09 "Hg
* Reported Jan 29 1:53 AM — Feb 13 1:53 AM, Jackson, Weather by CustomWeather, © 2016

Note: Actual official high and low records may vary slightly from our data, if they occured in-between our weather recording intervals... More about our weather records

Advertising

Jackson Weather History for the Previous 24 Hours

 ConditionsComfort  
Time TempWeatherWind HumidityBarometerVisibility
1:53 AM
Sat, Feb 13
45 °FClear.5 mph56%30.35 "Hg10 mi
12:53 AM46 °FClear.5 mph56%30.34 "Hg10 mi
11:53 PM
Fri, Feb 12
48 °FClear.6 mph50%30.34 "Hg10 mi
10:53 PM49 °FClear.5 mph50%30.34 "Hg10 mi
9:53 PM50 °FClear.3 mph50%30.32 "Hg10 mi
8:53 PM52 °FClear.6 mph49%30.31 "Hg10 mi
7:53 PM54 °FClear.6 mph47%30.30 "Hg10 mi
6:53 PM56 °FClear.7 mph44%30.28 "Hg10 mi
5:53 PM60 °FClear.8 mph38%30.24 "Hg10 mi
4:53 PM64 °FSunny.9 mph33%30.21 "Hg10 mi
3:53 PM66 °FSunny.9 mph29%30.19 "Hg10 mi
2:53 PM65 °FSunny.9 mph32%30.19 "Hg10 mi
1:53 PM67 °FSunny.8 mph30%30.19 "Hg10 mi
12:53 PM67 °FSunny.13 mph31%30.20 "Hg10 mi
11:53 AM65 °FSunny.10 mph44%30.22 "Hg10 mi
10:53 AM62 °FSunny.9 mph52%30.23 "Hg10 mi
9:53 AM58 °FSunny.13 mph62%30.23 "Hg10 mi
8:53 AM54 °FSunny.16 mph74%30.21 "Hg10 mi
7:53 AM48 °FPartly sunny.7 mph77%30.20 "Hg10 mi
6:53 AM47 °FLow clouds.6 mph86%30.17 "Hg9 mi
5:53 AM52 °FPassing clouds.9 mph93%30.14 "Hg10 mi
4:53 AM47 °FClear.5 mph83%30.11 "Hg9 mi
3:53 AM47 °FClear.No wind80%30.10 "Hg10 mi
Weather by CustomWeather, © 2016

See weather overviewHow to use our weather pages